Вернуться в каталог

STARLINK-32139

АктивенСвязьVLEO
NORAD 61510·PAYLOAD·🇺🇸 United States

Запущен Oct 15, 2024 с Cape Canaveral Space Force Station

Loading…

Ближайшие Пролёты (ближайшие 24 часа)

TLE

СвежийSource: CelesTrak SupGP

Эпоха: Sep 14, 2026, 21:12 UTC

1 61510C 24183B   26257.88381944 -.00018867  00000+0 -60693-3 0  2573
2 61510  53.1599 342.2350 0001226  82.8692 115.4426 15.31699792    18

Отслеживайте STARLINK-32139 в реальном времени с AllMySat

Download on the App Store